Location: Newark
(45.8667°N, 9.7333°E)
Time: 18:14:37
(UTC+00:00)

Transit 4A - Pass Details

Date: 24 January 2020
Orbit: 872 x 973 km, 66.8° (Epoch: 26 February)

Event Time Altitude Azimuth Distance (km) Brightness Sun altitude
Rises 05:53:50 0° 200° (SSW) 3,551 10.9 -10.2°
Reaches altitude 10° 05:56:24 10° 197° (SSW) 2,597 10.3 -9.8°
Maximum altitude 06:02:19 64° 118° (ESE) 992 8.4 -8.8°
Drops below altitude 10° 06:08:09 10° 38° (NE) 2,552 10.5 -7.9°
Sets 06:10:39 0° 36° (NE) 3,486 11.1 -7.5°
